DW0841 Weather Reports


Display with metric or nautical units.
time (UTC)temp
F
wind
direction
speed
MPH
gust
MPH
rain 1hr
in
rain 24hr
in
rain mn
in
humidity
%
barometer
mb
20260831145618 43 0 2.0 3.0 0.00 0.00 0.00 87 1016.4
20260831144617 44 338 1.0 2.0 0.00 0.00 0.00 86 1016.4
20260831143617 44 0.0 0.0 0.00 0.00 0.00 85 1016.4
20260831142618 44 338 1.0 1.0 0.00 0.00 0.00 86 1016.5
20260831141618 44 45 1.0 2.0 0.00 0.00 0.00 87 1016.6
20260831140618 43 0 2.0 4.0 0.00 0.00 0.00 86 1016.9
20260831135637 44 315 1.0 2.0 0.00 0.00 0.00 86 1017.0
20260831134617 44 23 1.0 2.0 0.00 0.00 0.00 86 1017.1
20260831133617 44 23 1.0 2.0 0.00 0.00 0.00 86 1017.2
20260831132617 44 0 1.0 2.0 0.00 0.00 0.00 87 1017.5
20260831131617 44 338 1.0 2.0 0.00 0.00 0.00 88 1017.6
20260831130657 43 0.0 1.0 0.00 0.00 0.00 88 1017.7
20260831125637 44 0.0 2.0 0.00 0.00 0.00 87 1018.0
20260831124617 44 315 1.0 2.0 0.00 0.00 0.00 88 1018.2
20260831123617 44 293 2.0 4.0 0.00 0.00 0.00 88 1018.2
20260831122617 44 23 1.0 2.0 0.00 0.00 0.00 88 1018.4
20260831121617 44 45 1.0 3.0 0.00 0.00 0.00 92 1018.5
20260831120617 44 45 2.0 3.0 0.00 0.00 0.00 87 1018.5
20260831115617 44 338 1.0 1.0 0.00 0.00 0.00 87 1018.8
20260831114617 45 0.0 0.0 0.00 0.00 0.00 86 1018.9
20260831113617 45 0.0 0.0 0.00 0.00 0.00 86 1018.6
20260831112617 45 338 2.0 2.0 0.00 0.00 0.00 86 1018.6
20260831111617 45 23 1.0 2.0 0.00 0.00 0.00 86 1018.7
20260831110617 46 0.0 1.0 0.00 0.00 0.00 84 1018.7
20260831105617 46 0 1.0 2.0 0.00 0.00 0.00 84 1018.9
20260831104617 47 0.0 0.0 0.00 0.00 0.00 83 1018.9
20260831103617 47 338 1.0 2.0 0.00 0.00 0.00 83 1018.9
20260831102637 47 0 1.0 2.0 0.00 0.00 0.00 84 1019.1
20260831101617 47 0 2.0 3.0 0.00 0.00 0.00 84 1019.2
20260831100617 47 0 1.0 2.0 0.00 0.00 0.00 85 1019.2
20260831095617 47 23 2.0 3.0 0.00 0.00 0.00 84 1019.3
20260831094617 48 338 2.0 3.0 0.00 0.00 0.00 84 1019.4
20260831093637 48 0 2.0 3.0 0.00 0.00 0.00 84 1019.3
20260831092617 48 0 2.0 3.0 0.00 0.00 0.00 83 1019.4
20260831091617 49 23 1.0 2.0 0.00 0.00 0.00 83 1019.4
20260831090617 49 45 1.0 2.0 0.00 0.00 0.00 82 1019.4
20260831085616 50 0.0 1.0 0.00 0.00 0.00 82 1019.4
20260831084617 50 45 3.0 4.0 0.00 0.00 0.00 81 1019.4
20260831083617 50 23 1.0 2.0 0.00 0.00 0.00 81 1019.3
20260831082617 51 0.0 1.0 0.00 0.00 0.00 80 1019.4
20260831081617 52 0 1.0 1.0 0.00 0.00 0.00 79 1019.4
20260831080617 53 0.0 2.0 0.00 0.00 0.00 78 1019.4
20260831075617 54 23 1.0 2.0 0.00 0.00 0.00 76 1019.4
20260831074617 55 0.0 0.0 0.00 0.00 0.00 74 1019.3
20260831073617 56 0 1.0 2.0 0.00 0.00 0.00 73 1019.5
20260831072657 58 0.0 0.0 0.00 0.00 0.00 70 1019.3
20260831071617 59 315 2.0 2.0 0.00 0.00 0.00 66 1019.4
20260831070617 61 338 1.0 2.0 0.00 0.00 0.00 61 1019.4
20260831065617 62 0.0 0.0 0.00 0.00 0.00 58 1019.3
20260831064617 62 0.0 1.0 0.00 0.00 0.00 57 1019.4
20260831063617 63 113 1.0 1.0 0.00 0.00 0.00 56 1019.5
20260831062617 64 0.0 0.0 0.00 0.00 0.00 52 1019.4
20260831061617 65 0.0 1.0 0.00 0.00 0.00 52 1019.6
20260831060617 65 0.0 1.0 0.00 0.00 0.00 53 1019.7
20260831055657 66 0.0 1.0 0.00 0.00 0.00 53 1019.8
20260831054616 65 90 1.0 3.0 0.00 0.00 0.00 56 1019.8
20260831053617 65 0.0 1.0 0.00 0.00 0.00 50 1019.9
20260831052637 66 135 2.0 4.0 0.00 0.00 0.00 53 1019.9
20260831051617 65 0 2.0 5.0 0.00 0.00 0.00 50 1019.8
20260831050637 66 135 2.0 5.0 0.00 0.00 0.00 49 1020.1
20260831045617 67 0.0 1.0 0.00 0.00 0.00 50 1020.2
20260831044657 67 68 1.0 3.0 0.00 0.00 0.00 47 1020.2
20260831043617 68 0.0 2.0 0.00 0.00 0.00 47 1020.1
20260831042617 68 113 1.0 2.0 0.00 0.00 0.00 49 1020.2
20260831041616 67 0.0 1.0 0.00 0.00 0.00 52 1020.4
20260831040617 67 270 1.0 3.0 0.00 0.00 0.00 50 1020.5
20260831035617 67 113 3.0 4.0 0.00 0.00 0.00 50 1020.4
20260831034616 66 135 3.0 5.0 0.00 0.00 0.00 51 1020.8
20260831033617 67 113 2.0 3.0 0.00 0.00 0.00 49 1020.8
20260831032616 66 113 3.0 5.0 0.00 0.00 0.00 50 1020.8
20260831031617 67 113 2.0 6.0 0.00 0.00 0.00 51 1021.0
20260831030637 66 90 4.0 6.0 0.00 0.00 0.00 52 1021.1
20260831025616 66 135 2.0 3.0 0.00 0.00 0.00 53 1021.3
20260831024617 65 68 3.0 6.0 0.00 0.00 0.00 53 1021.5
20260831023616 66 113 6.0 9.0 0.00 0.00 0.00 51 1021.6
20260831022657 66 135 1.0 2.0 0.00 0.00 0.00 51 1021.7
20260831021657 65 158 2.0 4.0 0.00 0.00 0.00 53 1021.9
20260831020616 64 135 1.0 2.0 0.00 0.00 0.00 54 1022.1
20260831015616 63 68 2.0 3.0 0.00 0.00 0.00 54 1022.4
20260831014616 62 68 2.0 3.0 0.00 0.00 0.00 55 1022.6
20260831013616 61 113 1.0 3.0 0.00 0.00 0.00 59 1022.5
20260831012617 61 68 2.0 4.0 0.00 0.00 0.00 61 1022.9
20260831011637 60 0.0 1.0 0.00 0.00 0.00 56 1023.1
20260831010616 60 113 2.0 4.0 0.00 0.00 0.00 60 1023.1
20260831005616 59 90 1.0 3.0 0.00 0.00 0.00 60 1023.1
20260831004636 59 90 1.0 2.0 0.00 0.00 0.00 60 1023.3
20260831003617 59 0.0 2.0 0.00 0.00 0.00 58 1023.2
20260831002616 58 113 1.0 2.0 0.00 0.00 0.00 60 1023.3
20260831001616 58 113 1.0 2.0 0.00 0.00 0.00 63 1023.4
20260831000637 58 0.0 2.0 0.00 0.00 0.00 65 1023.4
20260830235657 57 0.0 0.0 0.00 0.00 0.00 65 1023.4
20260830234616 56 0.0 1.0 0.00 0.00 0.00 69 1023.6
20260830233637 56 90 1.0 4.0 0.00 0.00 0.00 69 1023.7
20260830232616 55 68 2.0 3.0 0.00 0.00 0.00 73 1023.7
20260830231616 53 135 1.0 4.0 0.00 0.00 0.00 79 1023.6
20260830230616 52 113 1.0 2.0 0.00 0.00 0.00 83 1023.6
20260830225616 50 0 2.0 3.0 0.00 0.00 0.00 83 1023.7
20260830224617 49 45 2.0 4.0 0.00 0.00 0.00 86 1023.8
20260830223637 48 0.0 0.0 0.00 0.00 0.00 86 1023.9
20260830222616 47 0.0 1.0 0.00 0.00 0.00 86 1023.9
20260830221616 46 68 2.0 3.0 0.00 0.00 0.00 85 1024.0
20260830220616 46 0.0 1.0 0.00 0.00 0.00 85 1023.9
20260830215617 46 0.0 1.0 0.00 0.00 0.00 86 1023.6
20260830214616 45 338 2.0 3.0 0.00 0.00 0.00 87 1023.6
20260830213652 44 0 1.0 2.0 0.00 0.00 0.00 87 1023.3
20260830212616 44 45 1.0 2.0 0.00 0.00 0.00 86 1023.4
20260830211616 44 270 1.0 2.0 0.00 0.00 0.00 85 1023.3
20260830210616 44 0 3.0 4.0 0.00 0.00 0.00 84 1023.2
20260830205616 45 0 1.0 2.0 0.00 0.00 0.00 84 1022.9
20260830204637 44 225 1.0 2.0 0.00 0.00 0.00 84 1022.8
20260830203616 44 23 2.0 3.0 0.00 0.00 0.00 85 1022.7
20260830202616 44 45 1.0 2.0 0.00 0.00 0.00 83 1022.6
20260830201616 44 293 1.0 2.0 0.00 0.00 0.00 83 1022.6
20260830200616 45 270 2.0 3.0 0.00 0.00 0.00 80 1022.5
20260830195616 46 270 1.0 3.0 0.00 0.00 0.00 79 1022.4
20260830194616 46 90 3.0 4.0 0.00 0.00 0.00 82 1022.3
20260830193617 46 113 3.0 5.0 0.00 0.00 0.00 82 1022.1
20260830192616 46 23 1.0 3.0 0.00 0.00 0.00 82 1022.2
20260830191616 44 90 3.0 7.0 0.00 0.00 0.00 84 1022.2
20260830190616 45 90 3.0 5.0 0.00 0.00 0.00 85 1022.3
20260830185616 43 23 1.0 1.0 0.00 0.00 0.00 85 1022.3
20260830184617 43 338 1.0 3.0 0.00 0.00 0.00 85 1022.4
20260830183616 43 23 1.0 2.0 0.00 0.00 0.00 85 1022.3
20260830182616 43 0 2.0 3.0 0.00 0.00 0.00 84 1022.2
20260830181616 44 45 3.0 4.0 0.00 0.00 0.00 84 1022.3
20260830180617 44 45 3.0 3.0 0.00 0.00 0.00 83 1022.3
20260830175637 44 338 2.0 3.0 0.00 0.00 0.00 83 1022.3
20260830174616 44 293 2.0 4.0 0.00 0.00 0.00 83 1022.2
20260830173636 44 315 1.0 2.0 0.00 0.00 0.00 82 1022.2
20260830172616 45 0.0 1.0 0.00 0.00 0.00 81 1022.3
20260830171616 45 293 2.0 3.0 0.00 0.00 0.00 80 1022.3
20260830170616 46 45 1.0 3.0 0.00 0.00 0.00 78 1022.2
20260830165616 47 315 1.0 1.0 0.00 0.00 0.00 77 1022.1
20260830164616 47 338 1.0 1.0 0.00 0.00 0.00 79 1022.2
20260830163616 45 0 2.0 2.0 0.00 0.00 0.00 80 1022.4
20260830162616 46 0 1.0 2.0 0.00 0.00 0.00 78 1022.6
20260830161616 47 0.0 1.0 0.00 0.00 0.00 77 1022.7
20260830160616 47 90 1.0 2.0 0.00 0.00 0.00 78 1022.8
20260830155616 46 0 1.0 3.0 0.00 0.00 0.00 78 1022.7
20260830154636 47 90 2.0 3.0 0.00 0.00 0.00 75 1022.6
20260830153636 49 90 1.0 2.0 0.00 0.00 0.00 74 1022.7
20260830152616 48 90 1.0 2.0 0.00 0.00 0.00 74 1022.8
20260830151618 49 68 1.0 2.0 0.00 0.00 0.00 73 1023.0
20260830150618 49 0.0 1.0 0.00 0.00 0.00 73 1023.1